• în România
  • Lista ţărilor
  • Pe 7 zile
  • Temperatura apei
  • Hartă satelitară
  • Meteo pe hartă
  • Widget-uri
  • user-avatar
    Intrare

    Meteo pe oră la Misteliha

    Astăzi, 17 Iulie, Marţi

    Timp Temperatura Precipitaţii Vânt Presiune Umiditate
    00:00 +19°C° 0 mm 2 m/s 742 mmHg 85%
    01:00 +18°C° 0 mm 2 m/s 742 mmHg 87%
    02:00 +17°C° 0 mm 2 m/s 742 mmHg 94%
    03:00 +18°C° 0 mm 3 m/s 742 mmHg 90%
    04:00 +19°C° 0 mm 3 m/s 742 mmHg 86%
    05:00 +19°C° 0 mm 3 m/s 742 mmHg 82%
    06:00 +21°C° 0 mm 4 m/s 742 mmHg 75%
    07:00 +23°C° 0 mm 4 m/s 742 mmHg 68%
    08:00 +26°C° 0 mm 5 m/s 742 mmHg 61%
    09:00 +27°C° 0 mm 5 m/s 742 mmHg 57%
    10:00 +27°C° 0 mm 5 m/s 742 mmHg 53%
    11:00 +28°C° 0 mm 6 m/s 742 mmHg 49%
    12:00 +29°C° 0 mm 6 m/s 742 mmHg 47%
    13:00 +29°C° 0 mm 6 m/s 741 mmHg 46%
    14:00 +29°C° 0 mm 6 m/s 741 mmHg 44%
    15:00 +29°C° 0 mm 5 m/s 741 mmHg 45%
    16:00 +29°C° 0 mm 5 m/s 741 mmHg 47%
    17:00 +28°C° 0 mm 5 m/s 741 mmHg 48%
    18:00 +26°C° 0 mm 4 m/s 741 mmHg 53%
    19:00 +25°C° 0 mm 4 m/s 740 mmHg 58%
    20:00 +22°C° 0 mm 3 m/s 740 mmHg 63%
    21:00 +22°C° 0 mm 3 m/s 740 mmHg 64%
    22:00 +21°C° 0 mm 4 m/s 740 mmHg 66%
    23:00 +20°C° 0 mm 4 m/s 740 mmHg 67%

    Mâine, 18 Iulie, Miercuri

    Timp Temperatura Precipitaţii Vânt Presiune Umiditate
    00:00 +20°C° 0 mm 4 m/s 740 mmHg 67%
    01:00 +20°C° 0 mm 4 m/s 740 mmHg 68%
    02:00 +20°C° 0 mm 4 m/s 740 mmHg 69%
    03:00 +20°C° 0 mm 4 m/s 740 mmHg 70%
    04:00 +19°C° 0 mm 5 m/s 740 mmHg 72%
    05:00 +19°C° 0 mm 5 m/s 740 mmHg 73%
    06:00 +21°C° 0 mm 5 m/s 740 mmHg 68%
    07:00 +22°C° 0 mm 6 m/s 740 mmHg 64%
    08:00 +23°C° 0 mm 6 m/s 739 mmHg 59%
    09:00 +24°C° 0 mm 6 m/s 739 mmHg 56%
    10:00 +26°C° 0 mm 6 m/s 739 mmHg 53%
    11:00 +28°C° 0 mm 6 m/s 739 mmHg 50%
    12:00 +27°C° 0,4 mm 6 m/s 739 mmHg 55%
    13:00 +27°C° 0,4 mm 6 m/s 739 mmHg 59%
    14:00 +27°C° 0,4 mm 6 m/s 738 mmHg 63%
    15:00 +26°C° 0,2 mm 6 m/s 738 mmHg 65%
    16:00 +26°C° 0,2 mm 6 m/s 738 mmHg 66%
    17:00 +24°C° 0,2 mm 6 m/s 739 mmHg 67%
    18:00 +23°C° 0,1 mm 5 m/s 739 mmHg 71%
    19:00 +22°C° 0,1 mm 5 m/s 739 mmHg 75%
    20:00 +21°C° 0,1 mm 4 m/s 739 mmHg 79%
    21:00 +20°C° 0 mm 4 m/s 739 mmHg 79%
    22:00 +20°C° 0 mm 4 m/s 739 mmHg 80%
    23:00 +20°C° 0 mm 4 m/s 739 mmHg 81%

    Poimâine, 19 Iulie, Joi

    Timp Temperatura Precipitaţii Vânt Presiune Umiditate
    00:00 +20°C° 0 mm 4 m/s 738 mmHg 81%
    01:00 +19°C° 0 mm 4 m/s 738 mmHg 82%
    02:00 +19°C° 0 mm 4 m/s 738 mmHg 82%
    03:00 +19°C° 0 mm 4 m/s 738 mmHg 82%
    04:00 +19°C° 0 mm 5 m/s 738 mmHg 81%
    05:00 +20°C° 0 mm 5 m/s 738 mmHg 80%
    06:00 +21°C° 0,1 mm 5 m/s 739 mmHg 76%
    07:00 +22°C° 0,1 mm 5 m/s 739 mmHg 73%
    08:00 +23°C° 0,1 mm 6 m/s 739 mmHg 69%
    09:00 +24°C° 0 mm 6 m/s 739 mmHg 66%
    10:00 +26°C° 0 mm 6 m/s 739 mmHg 62%
    11:00 +27°C° 0 mm 6 m/s 739 mmHg 59%
    12:00 +26°C° 0,9 mm 6 m/s 739 mmHg 67%
    13:00 +26°C° 0,9 mm 5 m/s 739 mmHg 75%
    14:00 +25°C° 0,9 mm 5 m/s 739 mmHg 83%
    15:00 +25°C° 0,3 mm 5 m/s 739 mmHg 79%
    16:00 +25°C° 0,3 mm 5 m/s 739 mmHg 76%
    17:00 +25°C° 0,3 mm 5 m/s 739 mmHg 73%
    18:00 +23°C° 0,4 mm 5 m/s 739 mmHg 77%
    19:00 +22°C° 0,4 mm 4 m/s 739 mmHg 82%
    20:00 +21°C° 0,4 mm 4 m/s 739 mmHg 86%
    21:00 +21°C° 0,3 mm 4 m/s 739 mmHg 89%
    22:00 +20°C° 0,3 mm 4 m/s 739 mmHg 91%
    23:00 +20°C° 0,3 mm 4 m/s 739 mmHg 93%

    20 Iulie, Vineri

    Timp Temperatura Precipitaţii Vânt Presiune Umiditate
    00:00 +19°C° 0 mm 4 m/s 739 mmHg 94%
    01:00 +19°C° 0 mm 4 m/s 739 mmHg 94%
    02:00 +18°C° 0 mm 4 m/s 739 mmHg 95%
    03:00 +19°C° 0 mm 4 m/s 739 mmHg 94%
    04:00 +19°C° 0 mm 4 m/s 739 mmHg 92%
    05:00 +19°C° 0 mm 4 m/s 740 mmHg 90%
    06:00 +20°C° 0 mm 4 m/s 740 mmHg 87%
    07:00 +20°C° 0 mm 5 m/s 740 mmHg 84%
    08:00 +21°C° 0 mm 5 m/s 740 mmHg 81%
    09:00 +21°C° 0 mm 5 m/s 740 mmHg 78%
    10:00 +22°C° 0 mm 5 m/s 740 mmHg 75%
    11:00 +22°C° 0 mm 5 m/s 740 mmHg 72%
    12:00 +22°C° 0 mm 5 m/s 740 mmHg 69%
    13:00 +23°C° 0 mm 5 m/s 740 mmHg 67%
    14:00 +23°C° 0 mm 5 m/s 740 mmHg 65%
    15:00 +23°C° 0 mm 5 m/s 740 mmHg 66%
    16:00 +23°C° 0 mm 4 m/s 740 mmHg 66%
    17:00 +23°C° 0 mm 4 m/s 739 mmHg 67%
    18:00 +22°C° 0,1 mm 3 m/s 739 mmHg 74%
    19:00 +21°C° 0,1 mm 3 m/s 739 mmHg 81%
    20:00 +20°C° 0,1 mm 3 m/s 739 mmHg 87%
    21:00 +19°C° 0 mm 2 m/s 739 mmHg 90%
    22:00 +18°C° 0 mm 2 m/s 739 mmHg 92%
    23:00 +18°C° 0 mm 2 m/s 738 mmHg 95%

    21 Iulie, Sâmbătă

    Timp Temperatura Precipitaţii Vânt Presiune Umiditate
    00:00 +18°C° 0 mm 2 m/s 738 mmHg 95%
    01:00 +18°C° 0 mm 3 m/s 738 mmHg 96%
    02:00 +18°C° 0 mm 3 m/s 738 mmHg 96%
    03:00 +18°C° 0,1 mm 3 m/s 738 mmHg 96%
    04:00 +18°C° 0,1 mm 3 m/s 738 mmHg 96%
    05:00 +18°C° 0,1 mm 3 m/s 738 mmHg 96%
    06:00 +19°C° 0 mm 3 m/s 738 mmHg 95%
    07:00 +19°C° 0 mm 3 m/s 738 mmHg 94%
    08:00 +19°C° 0 mm 3 m/s 738 mmHg 93%
    09:00 +20°C° 0 mm 3 m/s 738 mmHg 91%
    10:00 +21°C° 0 mm 3 m/s 738 mmHg 88%
    11:00 +22°C° 0 mm 3 m/s 738 mmHg 85%
    12:00 +24°C° 0 mm 3 m/s 738 mmHg 81%
    13:00 +25°C° 0 mm 3 m/s 738 mmHg 78%
    14:00 +26°C° 0 mm 3 m/s 737 mmHg 74%
    15:00 +26°C° 0,1 mm 3 m/s 737 mmHg 73%
    16:00 +27°C° 0,1 mm 3 m/s 737 mmHg 72%
    17:00 +27°C° 0,1 mm 3 m/s 737 mmHg 71%
    18:00 +26°C° 0 mm 3 m/s 737 mmHg 77%
    19:00 +24°C° 0 mm 2 m/s 737 mmHg 84%
    20:00 +23°C° 0 mm 2 m/s 737 mmHg 90%
    21:00 +21°C° 0 mm 2 m/s 737 mmHg 92%
    22:00 +21°C° 0 mm 2 m/s 736 mmHg 95%
    23:00 +20°C° 0 mm 2 m/s 736 mmHg 97%

    22 Iulie, Duminică

    Timp Temperatura Precipitaţii Vânt Presiune Umiditate
    00:00 +20°C° 0,5 mm 2 m/s 736 mmHg 97%
    01:00 +20°C° 0,5 mm 2 m/s 736 mmHg 98%
    02:00 +20°C° 0,5 mm 2 m/s 736 mmHg 98%
    03:00 +20°C° 0 mm 2 m/s 736 mmHg 97%
    04:00 +20°C° 0 mm 2 m/s 736 mmHg 96%
    05:00 +20°C° 0 mm 2 m/s 737 mmHg 96%
    06:00 +23°C° 0,1 mm 2 m/s 737 mmHg 90%
    07:00 +24°C° 0,1 mm 2 m/s 737 mmHg 84%
    08:00 +26°C° 0,1 mm 3 m/s 737 mmHg 78%
    09:00 +27°C° 0,3 mm 3 m/s 737 mmHg 71%
    10:00 +28°C° 0,3 mm 4 m/s 737 mmHg 65%
    11:00 +30°C° 0,3 mm 4 m/s 736 mmHg 58%
    12:00 +30°C° 0,1 mm 4 m/s 736 mmHg 58%
    13:00 +30°C° 0,1 mm 4 m/s 736 mmHg 58%
    14:00 +30°C° 0,1 mm 4 m/s 736 mmHg 58%
    15:00 +29°C° 0,5 mm 4 m/s 736 mmHg 63%
    16:00 +28°C° 0,5 mm 4 m/s 736 mmHg 69%
    17:00 +27°C° 0,5 mm 3 m/s 736 mmHg 75%
    18:00 +26°C° 0,5 mm 3 m/s 736 mmHg 78%
    19:00 +25°C° 0,5 mm 3 m/s 736 mmHg 82%
    20:00 +24°C° 0,5 mm 3 m/s 736 mmHg 85%
    21:00 +22°C° 1,1 mm 3 m/s 736 mmHg 88%
    22:00 +22°C° 1,1 mm 3 m/s 736 mmHg 90%
    23:00 +21°C° 1,1 mm 2 m/s 736 mmHg 93%
    Arată mai mult